SL-12 R/B(2)

Satellite information

Favourite Embed

Satellite Type and Status

ROCKET BODYIN ORBIT

Key statistics

Satellite SL-12 R/B(2) at a glance.

Uptime

7525

Days in orbit

Revolutions

≈ 1.0

Per day

Orbit

OTHER

Other

Inclination

12.9

Latest

Satellite identification and parameters

Extended collection of information and parameters for SL-12 R/B(2).

Object identification

Identified? True

Debris? False

Object name: SL-12 R/B(2)

International designator: 2005-010F

Object number (NORAD): 28634

Object ID (CCSDS): 28634

Country: COMMONWEALTH OF INDEPENDENT STATES (CIS)

Current information (Y/N): Y

RCS size: LARGE

Orbital parameters

Period: 1436.862 minutes

Inclination: 12.8846 deg

SMA: 42179.709 km

Apoapsis: 35898.404 km

Periapsis: 35704.743 km

RAAN: 20.0661 deg

Eccentricy: 0.00229567

Argument of periapsis: 258.4566 deg

Mean anomaly: 106.5359 deg

Mean motion: 1.00218384 rev/day

Mean motion (dot): -0.00000228 rev/day2

B* drag term: 0.0 1/REarth

Two-line elements (TLE)

Creation date: Nov. 2, 2025, 5:34 p.m.

Reference frame: TEME

Reference center: EARTH

Epoch: Nov. 1, 2025, 4:51 p.m. UTC

TLE line 0: 0 SL-12 R/B(2)

TLE line 1: 1 28634U 05010F 25305.70253087 -.00000228 00000-0 00000-0 0 9999

TLE line 2: 2 28634 12.8846 20.0661 0022957 258.4566 106.5359 1.00218384 75424

Live tracking on map

Real-time ground track for satellite SL-12 R/B(2).

In-orbit conjunctions

A list of the most updated potential collisions computed for object SL-12 R/B(2).

Target Orbit TCA Probability of collision Miss distance Type
FENGYUN 2D DEB OTHER 2024-12-22 22:27:09 TBA 4224.0 (m) DEBRIS
SL-12 R/B(2) OTHER 2024-06-30 11:59:48 TBA 3934.0 (m) ROCKET BODY

Associated space launch

The Ekspress-AM 2 and 3 series are communications satellites for russian domestic communication services. The lifetime of the spacecraft has been increased to 12 years.

SL-12 R/B(2) was lifted into orbit during the mission ‘Proton-K/DM-2M | Ekspress AM-2’, on board a Proton-K/DM-2M space rocket.

The launch took place on March 29, 2005, 9:31 p.m. from 200/39 (200L).

For more information about the launch, click the button.

Launch to space Proton-K/DM-2M | Ekspress AM-2
Proton-K/DM-2M | Ekspress AM-2

Agency: N/A

Status: Launch Successful

Launch date: March 29, 2005, 9:31 p.m. UTC

Rocket: Proton-K/DM-2M

Launch pad: 200/39 (200L)

Location: Baikonur Cosmodrome, Republic of Kazakhstan

...

Latest news about this satellite

There are no fresh news available about this satellite. Check back as we update our databases every day.


Newsletter sign-up

Weekly statistics, charts and insights to help you stay on top of the space industry.